Regional Weather Roundup
Issued by NWS

Home | Current Version | Previous Version | Graphics & Text | Print | Product List | Glossary On
Versions: 1 2 3 4 5 6 7 8 9 10 11 12 13 14 15 16 17 18 19 20 21 22 23 24 25 26 27 28 29 30 31 32 33 34 35 36 37 38 39 40 41 42 43 44 45 46 47 48 49 50
000
ASUS43 KMPX 042301
RWRMN
WEATHER ROUNDUP FOR MINNESOTA
NATIONAL WEATHER SERVICE TWIN CITIES/CHANHASSEN MN
600 PM CDT WED MAY 04 2016


NOTE: "FAIR" INDICATES FEW OR NO CLOUDS BELOW 12,000 FEET WITH NO
SIGNIFICANT WEATHER AND/OR OBSTRUCTIONS TO VISIBILITY. N/A MEANS
CURRENT SKY AND/OR WEATHER CONDITIONS ARE NOT AVAILABLE.

MNZ060>063-068>070-050000-
   Twin Cities Metro

CITY           SKY/WX    TMP DP  RH WIND       PRES   REMARKS
TWIN CITIES    SUNNY     65  25  22 N13       29.94S
ST PAUL        SUNNY     65  26  23 N15       29.93F
CRYSTAL        SUNNY     67  22  18 N9        29.93F
BLAINE         SUNNY     66  25  20 N12       29.94S
EDEN PRAIRIE   SUNNY     66  21  18 N9        29.93S
SOUTH ST PAUL  SUNNY     66  21  18 N12G17    29.93S
LAKE ELMO      FAIR      64  27  24 N9G16     29.94S
$$
MNZ001>005-007-008-013>017-022>024-027-028-050000-
   Northwest Minnesota

CITY           SKY/WX    TMP DP  RH WIND       PRES   REMARKS
BEMIDJI        SUNNY     62  21  20 N10       29.99S
HALLOCK        SUNNY     70  21  16 CALM      29.96F
ROSEAU         SUNNY     66  23  19 CALM      29.97F
WARROAD        SUNNY     55  30  38 E8        29.99S
THIEF RVR FALL SUNNY     66  27  22 N5        29.99S
CROOKSTON      SUNNY     70  30  23 NW8       29.98F
FOSSTON        SUNNY     68  21  17 N8        29.99F
DETROIT LAKES  SUNNY     64  27  24 N8        30.00S
MOORHEAD       SUNNY     70  25  18 N7        29.99F
PARK RAPIDS    SUNNY     68  25  19 N9        29.97S
MAHNOMEN       FAIR      66  23  19 N7G16     29.99S
$$
MNZ006-009>011-018-025>026-050000-
   North Central Minnesota

CITY           SKY/WX    TMP DP  RH WIND       PRES   REMARKS
BAUDETTE       SUNNY     61  17  18 N7        29.99F
FLAG ISLAND    SUNNY     52  37  58 S8        29.97F
INTL FALLS     SUNNY     60  19  20 E8        29.97F
WASKISH        SUNNY     63  21  20 N5        29.99S
BIG FORK       SUNNY     64  16  15 N7        29.97S
LONGVILLE      SUNNY     63  21  20 NW6       29.97F
GRAND RAPIDS   SUNNY     63  19  19 N10       29.97F
CRANE LAKE     SUNNY     59  12  15 NW7       29.99R
ORR            SUNNY     61  10  13 NW6       29.95S
COOK           SUNNY     61  18  18 N7        29.97S
WALKER         FAIR      62  23  22 N5        29.98S
$$
MNZ012-019>021-037-050000-
   Northeast Minnesota

CITY           SKY/WX    TMP DP  RH WIND       PRES   REMARKS
DULUTH         SUNNY     54  27  35 SE13      29.96R
ELY            SUNNY     57  18  21 N5        29.96S
HIBBING        SUNNY     60  15  17 N7        29.95S
EVELETH        SUNNY     59  14  17 N7        29.97S
DULUTH HARBOR  SUNNY     45  36  70 N8        29.98S
TWO HARBORS    SUNNY     54  34  47 E6        29.96S
SILVER BAY     SUNNY     50  28  43 E5        29.96S
GRAND MARAIS     N/A     43  35  73 SW8       29.99S
G MARAIS ARPRT SUNNY     48  28  46 CALM      29.96S
$$
MNZ029>031-032-039>041-046>048-054>057-064-050000-
   West Central Minnesota

CITY           SKY/WX    TMP DP  RH WIND       PRES   REMARKS
FERGUS FALLS   SUNNY     66  34  30 N6G16     29.96S
WHEATON        SUNNY     72  34  25 NW14      30.00F
MORRIS         SUNNY     70  30  23 NW12G22   29.97F
ALEXANDRIA     SUNNY     66  24  20 NW14      29.99S
ELBOW LAKE     FAIR      66  32  28 NW14      29.99S
WADENA         SUNNY     66  28  24 N9G18     29.97S
GLENWOOD       SUNNY     66  27  22 NW15      29.99R
APPLETON       SUNNY     70  25  18 N15G22    29.98S
BENSON         SUNNY     70  19  14 N8G20     29.98S
ORTONVILLE     SUNNY     70  28  21 N12G17    29.99S
MADISON        SUNNY     68  28  22 N15       29.99S
WILLMAR        FAIR      70  32  24 NW12      29.98S
$$
MNZ033>034-036-042>043-049>051-058-059-050000-
   Central Minnesota

CITY           SKY/WX    TMP DP  RH WIND       PRES   REMARKS
ST CLOUD       SUNNY     66  21  18 N12G18    29.96R
SAUK CENTRE    FAIR      65  25  21 N10G16    29.97S
PAYNESVILLE    SUNNY     68  20  16 NW10      29.97S HAZE
AITKIN         SUNNY     66   3   8 N13       29.95S
PINE RIVER     SUNNY     63  30  29 N12G17    30.01R
BRAINERD       SUNNY     63  22  20 N13       29.98R
STAPLES        SUNNY     64  18  16 N10G16    29.97S
LONG PRAIRIE   FAIR      64  23  20 NW12G17   29.98R
LITTLE FALLS   SUNNY     64  19  17 N8        29.97R
LITCHFIELD     SUNNY     66  28  24 N6        29.96S
BUFFALO        SUNNY     65  23  19 NW13      29.96S
MAPLE LAKE     SUNNY     66  28  23 N9        29.97S
HUTCHINSON     SUNNY     67  31  27 N7G20     29.97R
$$
MNZ037-044-045-052-053-050000-
   East Central Minnesota

CITY           SKY/WX    TMP DP  RH WIND       PRES   REMARKS
PRINCETON      SUNNY     64  21  19 N13       29.96R
MORA           SUNNY     63  21  20 N12       29.96S
CAMBRIDGE      SUNNY     66  39  37 NW14      29.93S
RUSH CITY      SUNNY     64  24  22 N12G18    29.94S
MOOSE LAKE     SUNNY     64  25  22 N14       29.93S
HINCKLEY       CLOUDY    64  23  20 NW14      29.94S
CLOQUET        SUNNY     63   9  12 N6G20     29.95S
MCGREGOR       SUNNY     63  21  20 N8        29.96S
$$
MNZ071>073-080-081-089-090-097-098-050000-
   Southwest Minnesota

CITY           SKY/WX    TMP DP  RH WIND       PRES   REMARKS
MONTEVIDEO     SUNNY     72  30  21 N18       29.99S
GRANITE FALLS  SUNNY     70  32  24 N15       29.99S
CANBY          SUNNY     69  32  25 NW13G20   30.00S
MARSHALL       SUNNY     69  30  23 N18       29.98S
REDWOOD FALLS  SUNNY     70  24  17 N10       29.96S
OLIVIA         SUNNY     70  32  24 N16G22    29.96S
PIPESTONE      SUNNY     68  18  14 N13       30.00S
WINDOM         SUNNY     66  28  24 NW17      29.97S
WORTHINGTON    SUNNY     66  34  30 N17       29.99F
JACKSON        SUNNY     66  25  20 N12G25    29.98S
TRACY          SUNNY     69  30  23 N16G23    29.99S
SLAYTON        SUNNY     66  29  25 NW17      30.00S
$$
MNZ065>067-074>077-082>085-091>093-050000-
   South Central Minnesota

CITY           SKY/WX    TMP DP  RH WIND       PRES   REMARKS
MANKATO        SUNNY     66  27  22 N15       29.94S
NEW ULM        SUNNY     68  27  21 VRB9G17   29.94F
ST JAMES       SUNNY     64  23  20 N17G25    29.96S
FAIRMONT       SUNNY     68  30  24 N22       29.94S
GLENCOE        SUNNY     67  28  23 N9G20     29.95S
FARIBAULT      SUNNY     66  28  24 N12G20    29.94R
OWATONNA       SUNNY     64  27  24 NW17      29.93S
WASECA         SUNNY     64  27  24 N20G25    29.95R
ALBERT LEA     SUNNY     66  25  20 N15G22    29.93S
$$
MNZ078>079-086>088-094>096-050000-
   Southeast Minnesota

CITY           SKY/WX    TMP DP  RH WIND       PRES   REMARKS
ROCHESTER      SUNNY     62  31  31 N18G28    29.91F
RED WING       SUNNY     66  19  16 N13G20    29.91S
STANTON        SUNNY     66  24  20 N16       29.92S
DODGE CENTER   SUNNY     63  25  23 N20       29.93R
WINONA         SUNNY     63  28  27 NW16      29.90R
AUSTIN         SUNNY     63  27  25 N8G21     29.91F
PRESTON        SUNNY     60  30  31 N12G24    29.91R
$$
ABBREVIATIONS USED IN REMARKS
   TC - TEMPERATURES IN CELSIUS
  WCI - WIND CHILL INDEX
   HX - HEAT INDEX
  VSB - VISIBILITY
$$




USA.gov is the U.S. government's official web portal to all federal, state and local government web resources and services.